Location: Unspecified
(0.0000°N, 0.0000°E)
Time: 19:02:03
(UTC+00:00)

Vanguard 1 Rocket - Pass Details

Date: 25 November 2019
Orbit: 650 x 4226 km, 34.3° (Epoch: 09 December)

Event Time Altitude Azimuth Distance (km) Brightness Sun altitude
Rises 11:38:13 0° 277° (W) 5,059 11.2 69.2°
Reaches altitude 10° 11:41:19 10° 268° (W) 4,463 11.1 69.2°
Maximum altitude 11:53:31 38° 204° (SSW) 3,978 11.8 69.2°
Drops below altitude 10° 12:14:08 10° 142° (SE) 7,242 12.3 68.2°
Sets 12:21:20 0° 135° (SE) 8,453 12.4 67.6°
